GW0655 Weather Reports


time (UTC)temp
C
wind
direction
speed
KPH
gust
KPH
rain 1hr
cm
rain 24hr
cm
rain mn
cm
humidity
%
barometer
mb
20260507092713 15 43 8.0 11.3 0.00 0.00 0.00 85 1017.5
20260507092209 15 15 6.4 8.0 0.00 0.00 0.00 85 1017.2
20260507091705 15 5 6.4 9.7 0.00 0.00 0.00 85 1017.5
20260507091202 15 4 6.4 8.0 0.00 0.00 0.00 85 1017.2
20260507090657 15 336 6.4 8.0 0.00 0.00 0.00 85 1017.2
20260507090155 15 15 6.4 8.0 0.00 0.00 0.00 85 1017.2
20260507085652 16 356 3.2 3.2 0.00 0.00 0.00 85 1017.2
20260507085148 16 349 3.2 3.2 0.00 0.00 0.00 85 1017.5
20260507084646 16 5 3.2 3.2 0.00 0.00 0.00 85 1017.2
20260507084142 16 358 4.8 4.8 0.00 0.00 0.00 84 1017.2
20260507083639 16 340 4.8 4.8 0.00 0.00 0.00 84 1017.5
20260507083136 16 8 6.4 8.0 0.00 0.00 0.00 84 1017.2
20260507082631 16 287 0.0 0.0 0.00 0.00 0.00 85 1017.2
20260507082128 16 341 6.4 8.0 0.00 0.00 0.00 85 1017.2
20260507081625 16 20 1.6 1.6 0.00 0.00 0.00 85 1016.9
20260507081121 16 323 1.6 3.2 0.00 0.00 0.00 85 1016.9
20260507080618 16 333 3.2 3.2 0.00 0.00 0.00 84 1016.5
20260507080114 16 334 1.6 1.6 0.00 0.00 0.00 85 1016.9
20260507075609 16 332 1.6 3.2 0.00 0.00 0.00 85 1016.9
20260507075105 16 334 4.8 4.8 0.00 0.00 0.00 85 1016.5
20260507074603 16 18 3.2 3.2 0.00 0.00 0.00 85 1016.5
20260507074101 16 320 1.6 3.2 0.00 0.00 0.00 85 1016.9
20260507073556 16 353 4.8 4.8 0.00 0.00 0.00 85 1016.5
20260507073053 16 19 1.6 1.6 0.00 0.00 0.00 84 1017.2
20260507072550 16 257 0.0 0.0 0.00 0.00 0.00 84 1017.2
20260507072048 16 331 3.2 3.2 0.00 0.00 0.00 84 1016.9
20260507071545 16 341 4.8 4.8 0.00 0.00 0.00 84 1016.9
20260507071041 16 345 3.2 3.2 0.00 0.00 0.00 84 1016.9
20260507070538 16 327 3.2 3.2 0.00 0.00 0.00 83 1016.9
20260507070035 16 337 4.8 4.8 0.00 0.00 0.00 83 1017.2
20260507065532 16 302 3.2 3.2 0.00 0.00 0.00 83 1017.2
20260507065029 16 343 3.2 3.2 0.00 0.00 0.00 83 1016.9
20260507064527 16 322 1.6 1.6 0.00 0.00 0.00 83 1017.2
20260507064025 16 57 0.0 1.6 0.00 0.00 0.00 83 1017.2
20260507063522 16 324 1.6 1.6 0.00 0.00 0.00 83 1016.9
20260507063020 16 329 1.6 3.2 0.00 0.00 0.00 83 1016.2
20260507062516 16 305 4.8 8.0 0.00 0.00 0.00 82 1016.5
20260507062014 16 43 8.0 9.7 0.00 0.00 0.00 82 1016.9
20260507061511 16 17 3.2 3.2 0.00 0.00 0.00 82 1016.9
20260507061009 16 347 3.2 3.2 0.00 0.00 0.00 82 1016.9
20260507060506 16 338 6.4 8.0 0.00 0.00 0.00 82 1016.9
20260507060003 16 358 6.4 8.0 0.00 0.00 0.00 82 1016.5
20260507055458 16 337 4.8 4.8 0.00 0.00 0.00 81 1016.5
20260507054955 16 2 6.4 8.0 0.00 0.00 0.00 81 1016.5
20260507054450 16 19 3.2 3.2 0.00 0.00 0.00 81 1016.9
20260507053948 16 7 8.0 8.0 0.00 0.00 0.00 80 1016.9
20260507053446 16 358 6.4 8.0 0.00 0.00 0.00 80 1016.9
20260507052944 16 307 1.6 3.2 0.00 0.00 0.00 80 1016.9
20260507052441 16 338 6.4 11.3 0.00 0.00 0.00 80 1016.9
20260507051938 16 5 8.0 9.7 0.00 0.00 0.00 80 1016.5
20260507051436 16 357 4.8 4.8 0.00 0.00 0.00 81 1016.9
20260507050932 16 5 9.7 11.3 0.00 0.00 0.00 81 1016.5
20260507050429 16 326 6.4 8.0 0.00 0.00 0.00 81 1016.5
20260507045926 16 349 4.8 8.0 0.00 0.00 0.00 81 1016.5
20260507045422 16 337 4.8 4.8 0.00 0.00 0.00 81 1016.9
20260507044920 16 349 6.4 8.0 0.00 0.00 0.00 81 1016.5
20260507044416 16 27 4.8 4.8 0.00 0.00 0.00 81 1016.2
20260507043912 16 39 1.6 3.2 0.00 0.00 0.00 81 1016.9
20260507043409 17 45 3.2 3.2 0.00 0.00 0.00 81 1016.9
20260507042905 17 10 3.2 4.8 0.00 0.00 0.00 81 1016.9
20260507042402 17 11 3.2 3.2 0.00 0.00 0.00 81 1016.5
20260507041857 17 12 3.2 4.8 0.00 0.00 0.00 81 1016.5
20260507041355 17 20 4.8 8.0 0.00 0.00 0.00 81 1016.5
20260507040852 17 10 4.8 9.7 0.00 0.00 0.00 81 1016.5
20260507040348 17 7 4.8 4.8 0.00 0.00 0.00 81 1016.5
20260507035844 17 6 4.8 8.0 0.00 0.00 0.00 81 1016.2
20260507035340 17 346 8.0 9.7 0.00 0.00 0.00 81 1016.9
20260507034837 17 346 3.2 3.2 0.00 0.00 0.00 81 1016.9
20260507034334 17 10 8.0 9.7 0.00 0.00 0.00 81 1016.5
20260507033832 17 349 4.8 8.0 0.00 0.00 0.00 81 1016.2
20260507033330 17 8 6.4 8.0 0.00 0.00 0.00 81 1016.2
20260507032826 17 338 8.0 9.7 0.00 0.00 0.00 81 1015.8
20260507032322 17 342 9.7 12.9 0.00 0.00 0.00 81 1016.5
20260507031819 17 347 6.4 9.7 0.00 0.00 0.00 81 1016.5
20260507031316 17 352 6.4 8.0 0.00 0.00 0.00 81 1016.5
20260507030812 17 0 6.4 8.0 0.00 0.00 0.00 81 1016.2
20260507030310 17 352 4.8 4.8 0.00 0.00 0.00 81 1016.2
20260507025807 17 25 6.4 9.7 0.00 0.00 0.00 80 1016.2
20260507025306 17 39 3.2 3.2 0.00 0.00 0.00 80 1015.8
20260507024802 17 350 4.8 8.0 0.00 0.00 0.00 80 1015.5
20260507024259 17 28 6.4 9.7 0.00 0.00 0.00 80 1015.5
20260507023755 17 0 9.7 11.3 0.00 0.00 0.00 80 1016.2
20260507023252 17 9 4.8 8.0 0.00 0.00 0.00 80 1016.2
20260507022749 17 337 6.4 9.7 0.00 0.00 0.00 80 1016.2
20260507022245 17 12 4.8 4.8 0.00 0.00 0.00 80 1015.5
20260507021741 17 44 4.8 4.8 0.00 0.00 0.00 80 1015.5
20260507021237 17 352 6.4 8.0 0.00 0.00 0.00 80 1015.5
20260507020735 17 335 4.8 8.0 0.00 0.00 0.00 80 1015.5
20260507020232 17 309 4.8 4.8 0.00 0.00 0.00 80 1015.5
20260507015729 17 2 0.0 1.6 0.00 0.00 0.00 80 1015.2
20260507015226 17 333 4.8 4.8 0.00 0.00 0.00 80 1015.2
20260507014723 17 330 3.2 3.2 0.00 0.00 0.00 80 1015.2
20260507014219 17 50 1.6 3.2 0.00 0.00 0.00 79 1014.8
20260507013716 17 34 0.0 1.6 0.00 0.00 0.00 79 1014.8
20260507013214 17 48 4.8 4.8 0.00 0.00 0.00 79 1014.8
20260507012711 17 341 3.2 3.2 0.00 0.00 0.00 79 1015.2
20260507012206 17 319 3.2 3.2 0.00 0.00 0.00 79 1014.8
20260507011704 17 330 3.2 3.2 0.00 0.00 0.00 79 1014.5
20260507011200 17 4 4.8 8.0 0.00 0.00 0.00 79 1014.5
20260507010700 17 331 3.2 4.8 0.00 0.00 0.00 79 1014.5
20260507010156 17 9 4.8 4.8 0.00 0.00 0.00 79 1014.5
20260507005654 17 356 4.8 8.0 0.00 0.00 0.00 79 1014.5
20260507005154 17 280 4.8 4.8 0.00 0.00 0.00 79 1014.1
20260507004651 17 11 8.0 9.7 0.00 0.00 0.00 79 1013.8
20260507004149 17 337 4.8 4.8 0.00 0.00 0.00 79 1013.8
20260507003646 17 349 8.0 9.7 0.00 0.00 0.00 79 1014.1
20260507003145 17 359 4.8 8.0 0.00 0.00 0.00 79 1014.1
20260507002642 17 9 6.4 8.0 0.00 0.00 0.00 79 1014.5
20260507002138 17 358 6.4 9.7 0.00 0.00 0.00 79 1014.1
20260507001635 17 355 8.0 11.3 0.00 0.00 0.00 79 1014.1
20260507001132 17 25 4.8 4.8 0.00 0.00 0.00 79 1013.8
20260507000629 17 334 6.4 8.0 0.00 0.00 0.00 78 1014.1
20260507000124 17 356 8.0 9.7 0.00 0.00 0.00 78 1013.8
20260506235622 17 25 6.4 8.0 0.00 0.00 0.00 78 1013.8
20260506235122 17 37 6.4 9.7 0.00 0.00 0.00 78 1014.1
20260506234619 17 348 4.8 8.0 0.00 0.00 0.00 78 1013.8
20260506234116 17 17 4.8 8.0 0.00 0.00 0.00 78 1013.8
20260506233613 17 347 4.8 8.0 0.00 0.00 0.00 78 1013.8
20260506233110 17 325 4.8 8.0 0.00 0.00 0.00 78 1013.8
20260506232606 17 313 6.4 8.0 0.00 0.00 0.00 78 1013.8
20260506232102 17 7 8.0 11.3 0.00 0.00 0.00 78 1013.5
20260506231559 18 353 6.4 8.0 0.00 0.00 0.00 77 1013.8
20260506231058 18 346 6.4 8.0 0.00 0.00 0.00 77 1013.8
20260506230554 17 41 9.7 12.9 0.00 0.00 0.00 77 1013.5
20260506230051 18 209 6.4 11.3 0.00 0.00 0.00 77 1013.8
20260506225548 18 347 8.0 9.7 0.00 0.00 0.00 77 1013.5
20260506225044 18 15 8.0 11.3 0.00 0.00 0.00 76 1013.5
20260506224541 18 32 6.4 11.3 0.00 0.00 0.00 76 1013.5
20260506224038 18 6 4.8 8.0 0.00 0.00 0.00 76 1013.8
20260506223533 18 27 8.0 11.3 0.00 0.00 0.00 75 1013.5
20260506223030 18 6 12.9 16.1 0.00 0.00 0.00 74 1013.1
20260506222527 19 354 6.4 8.0 0.00 0.00 0.00 75 1013.5
20260506222023 19 3 8.0 9.7 0.00 0.00 0.00 75 1013.5
20260506221521 19 1 8.0 11.3 0.00 0.00 0.00 75 1013.5
20260506221019 19 359 6.4 9.7 0.00 0.00 0.00 74 1013.5
20260506220514 19 60 4.8 4.8 0.00 0.00 0.00 74 1013.5
20260506220010 20 351 11.3 12.9 0.00 0.00 0.00 73 1013.5
20260506215508 20 266 4.8 8.0 0.00 0.00 0.00 73 1013.5
20260506215003 20 21 8.0 11.3 0.00 0.00 0.00 73 1013.5
20260506214500 20 17 4.8 4.8 0.00 0.00 0.00 73 1013.1
20260506213957 20 21 11.3 16.1 0.00 0.00 0.00 72 1013.1
20260506213455 20 354 6.4 8.0 0.00 0.00 0.00 72 1013.1
20260506212952 20 3 9.7 11.3 0.00 0.00 0.00 72 1013.5
20260506212448 20 12 8.0 11.3 0.00 0.00 0.00 73 1013.1
20260506211943 20 343 11.3 12.9 0.00 0.00 0.00 72 1013.1
20260506211439 21 65 8.0 9.7 0.00 0.00 0.00 72 1013.1
20260506210937 21 355 8.0 8.0 0.00 0.00 0.00 71 1013.1
20260506210433 21 18 6.4 9.7 0.00 0.00 0.00 72 1013.5
20260506205930 21 16 6.4 9.7 0.00 0.00 0.00 72 1013.5
20260506205426 21 359 6.4 8.0 0.00 0.00 0.00 73 1013.5
20260506204923 21 23 6.4 9.7 0.00 0.00 0.00 74 1013.5
20260506204421 21 337 6.4 9.7 0.00 0.00 0.00 76 1013.5
20260506203918 21 338 6.4 8.0 0.00 0.00 0.00 75 1013.5
20260506203415 21 33 6.4 9.7 0.00 0.00 0.00 76 1013.5
20260506202911 21 5 8.0 11.3 0.00 0.00 0.00 75 1013.5
20260506202409 21 356 8.0 9.7 0.00 0.00 0.00 75 1013.5
20260506201905 21 26 8.0 12.9 0.00 0.00 0.00 74 1013.1
20260506201403 22 353 11.3 11.3 0.00 0.00 0.00 74 1012.7
20260506200859 22 18 12.9 14.5 0.00 0.00 0.00 73 1012.7
20260506200355 23 352 6.4 8.0 0.00 0.00 0.00 73 1012.7
20260506195852 23 42 4.8 4.8 0.00 0.00 0.00 74 1012.7
20260506195349 23 12 4.8 4.8 0.00 0.00 0.00 74 1012.7
20260506194846 23 315 6.4 8.0 0.00 0.00 0.00 73 1012.7
20260506194343 24 7 11.3 14.5 0.00 0.00 0.00 72 1012.7
20260506193840 25 70 6.4 9.7 0.00 0.00 0.00 71 1012.4
20260506193337 24 30 4.8 8.0 0.00 0.00 0.00 72 1012.4
20260506192833 25 31 11.3 14.5 0.00 0.00 0.00 71 1012.7
20260506192330 25 7 6.4 8.0 0.00 0.00 0.00 72 1012.7
20260506191827 25 341 4.8 8.0 0.00 0.00 0.00 73 1012.7
20260506191323 25 316 4.8 8.0 0.00 0.00 0.00 72 1013.1
20260506190820 25 354 6.4 8.0 0.00 0.00 0.00 72 1012.7
20260506190316 25 347 4.8 4.8 0.00 0.00 0.00 72 1013.1
20260506185814 25 14 6.4 8.0 0.00 0.00 0.00 71 1013.1
20260506185311 25 7 4.8 4.8 0.00 0.00 0.00 71 1012.7
20260506184808 25 311 3.2 3.2 0.00 0.00 0.00 72 1012.4
20260506184305 25 320 3.2 3.2 0.00 0.00 0.00 73 1012.7
20260506183802 25 136 6.4 8.0 0.00 0.00 0.00 71 1012.7
20260506183257 24 306 4.8 4.8 0.00 0.00 0.00 73 1012.7
20260506182754 23 351 1.6 4.8 0.00 0.00 0.00 73 1012.7
20260506182251 23 1 6.4 8.0 0.00 0.00 0.00 74 1012.7
20260506181749 23 315 3.2 3.2 0.00 0.00 0.00 74 1012.7
20260506181247 23 4 4.8 8.0 0.00 0.00 0.00 75 1012.7
20260506180744 22 57 0.0 0.0 0.00 0.00 0.00 75 1012.7
20260506180239 22 349 9.7 11.3 0.00 0.00 0.00 76 1013.1
20260506175736 22 115 4.8 4.8 0.00 0.00 0.00 77 1012.7
20260506175233 22 32 0.0 1.6 0.00 0.00 0.00 78 1012.7
20260506174731 21 42 3.2 4.8 0.00 0.00 0.00 77 1012.7
20260506174227 21 17 8.0 9.7 0.00 0.00 0.00 77 1013.1
20260506173725 21 12 9.7 11.3 0.00 0.00 0.00 76 1013.1
20260506173222 21 59 1.6 3.2 0.00 0.00 0.00 77 1013.1
20260506172719 21 348 8.0 11.3 0.00 0.00 0.00 77 1013.1
20260506172215 21 14 3.2 4.8 0.00 0.00 0.00 79 1013.1
20260506171713 20 44 1.6 1.6 0.00 0.00 0.00 80 1013.1
20260506171210 20 11 4.8 9.7 0.00 0.00 0.00 81 1013.5
20260506170708 20 338 8.0 9.7 0.00 0.00 0.00 80 1013.1
20260506170204 20 24 8.0 12.9 0.00 0.00 0.00 82 1013.5
20260506165702 19 341 11.3 12.9 0.00 0.00 0.00 83 1013.5
20260506165159 19 61 3.2 4.8 0.00 0.00 0.00 84 1013.5
20260506164656 18 38 4.8 4.8 0.00 0.00 0.00 86 1013.5
20260506164153 18 23 8.0 14.5 0.00 0.00 0.00 87 1014.1
20260506163650 18 348 8.0 11.3 0.00 0.00 0.00 88 1014.5
20260506163145 18 353 8.0 11.3 0.00 0.00 0.00 89 1014.1
20260506162641 18 350 6.4 8.0 0.00 0.00 0.00 89 1014.1
20260506162139 18 354 11.3 12.9 0.00 0.00 0.00 89 1014.5
20260506161636 18 18 16.1 20.9 0.00 0.00 0.00 89 1014.1
20260506161133 18 354 14.5 20.9 0.00 0.00 0.00 88 1014.5
20260506160630 20 6 12.9 14.5 0.00 0.00 0.00 88 1014.5
20260506160127 20 13 14.5 14.5 0.00 0.00 0.00 88 1014.1
20260506155626 20 66 6.4 8.0 0.00 0.00 0.00 87 1014.1
20260506155122 25 247 0.0 0.0 0.00 0.00 0.00 89 1013.1
20260506153219 25 6 0.0 1.6 0.00 0.00 0.00 89 1013.1
20260506152715 25 51 0.0 0.0 0.00 0.00 0.00 89 1012.7
20260506152213 25 254 0.0 0.0 0.00 0.00 0.00 89 1012.7
20260506151712 25 278 1.6 1.6 0.00 0.00 0.00 89 1012.7
20260506151208 25 313 0.0 0.0 0.00 0.00 0.00 90 1012.4
20260506150704 25 233 0.0 0.0 0.00 0.00 0.00 90 1012.7
20260506150201 25 177 3.2 3.2 0.00 0.00 0.00 89 1012.4
20260506145659 25 66 0.0 1.6 0.00 0.00 0.00 89 1012.4
20260506145155 25 123 3.2 3.2 0.00 0.00 0.00 89 1012.0
20260506144653 25 191 0.0 1.6 0.00 0.00 0.00 89 1012.0
20260506144149 25 291 0.0 1.6 0.00 0.00 0.00 90 1011.7
20260506143647 25 195 3.2 4.8 0.00 0.00 0.00 90 1011.7
20260506143145 24 166 1.6 1.6 0.00 0.00 0.00 90 1011.7
20260506142643 25 171 1.6 1.6 0.00 0.00 0.00 90 1011.3
20260506142141 25 203 0.0 0.0 0.00 0.00 0.00 90 1011.3
20260506141638 25 204 1.6 1.6 0.00 0.00 0.00 89 1011.7
20260506141136 24 211 0.0 0.0 0.00 0.00 0.00 89 1012.0
20260506140633 24 163 1.6 1.6 0.00 0.00 0.00 90 1012.0
20260506140130 24 185 1.6 1.6 0.00 0.00 0.00 90 1011.7
20260506135627 24 239 0.0 0.0 0.00 0.00 0.00 90 1011.3
20260506135124 24 243 0.0 1.6 0.00 0.00 0.00 90 1011.0
20260506134620 24 210 1.6 3.2 0.00 0.00 0.00 90 1011.0
20260506134116 24 158 4.8 4.8 0.00 0.00 0.00 90 1011.0
20260506133614 24 241 0.0 1.6 0.00 0.00 0.00 90 1011.0
20260506133110 24 338 1.6 1.6 0.00 0.00 0.00 90 1011.0
20260506132608 24 176 1.6 1.6 0.00 0.00 0.00 91 1010.7
20260506132105 24 244 0.0 0.0 0.00 0.00 0.00 92 1011.0
20260506131602 24 235 1.6 1.6 0.00 0.00 0.00 92 1011.0
20260506131058 23 234 0.0 0.0 0.00 0.00 0.00 92 1010.7
20260506130555 23 92 1.6 1.6 0.00 0.00 0.00 93 1010.7
20260506130053 23 203 1.6 1.6 0.00 0.00 0.00 93 1011.0
20260506125551 23 241 1.6 1.6 0.00 0.00 0.00 93 1011.0
20260506125048 23 185 1.6 1.6 0.00 0.00 0.00 93 1010.7
20260506124546 23 156 1.6 3.2 0.00 0.00 0.00 93 1010.7
20260506124044 23 250 0.0 0.0 0.00 0.00 0.00 93 1011.0
20260506123541 23 241 1.6 1.6 0.00 0.00 0.00 93 1010.7
20260506123039 23 184 1.6 1.6 0.00 0.00 0.00 93 1010.7
20260506122535 23 238 0.0 0.0 0.00 0.00 0.00 93 1010.7
20260506122034 23 244 0.0 0.0 0.00 0.00 0.00 93 1010.7
20260506121531 23 250 0.0 0.0 0.00 0.00 0.00 93 1010.7
20260506121027 23 241 0.0 0.0 0.00 0.00 0.00 93 1010.7
20260506120525 23 233 0.0 1.6 0.00 0.00 0.00 93 1010.7
20260506120022 23 207 1.6 1.6 0.00 0.00 0.00 93 1010.7
20260506115520 23 237 0.0 0.0 0.00 0.00 0.00 93 1010.7
20260506115018 23 238 0.0 0.0 0.00 0.00 0.00 93 1010.7
20260506114515 23 235 0.0 0.0 0.00 0.00 0.00 92 1010.7
20260506114014 23 252 0.0 0.0 0.00 0.00 0.00 92 1010.7
20260506113511 23 256 0.0 0.0 0.00 0.00 0.00 92 1010.7
20260506113009 23 245 0.0 0.0 0.00 0.00 0.00 92 1010.7
20260506112505 23 247 0.0 0.0 0.00 0.00 0.00 91 1010.7
20260506112002 23 247 0.0 0.0 0.00 0.00 0.00 91 1010.7
20260506111500 23 243 0.0 0.0 0.00 0.00 0.00 91 1010.7
20260506110957 23 231 0.0 0.0 0.00 0.00 0.00 91 1010.7
20260506110455 23 219 1.6 1.6 0.00 0.00 0.00 91 1010.3
20260506105951 23 226 0.0 0.0 0.00 0.00 0.00 91 1010.3
20260506105448 23 235 0.0 1.6 0.00 0.00 0.00 91 1010.3
20260506104945 23 141 3.2 3.2 0.00 0.00 0.00 91 1010.3
20260506104443 23 198 1.6 1.6 0.00 0.00 0.00 91 1010.3
20260506103941 23 236 0.0 1.6 0.00 0.00 0.00 91 1010.3
20260506103438 23 238 0.0 0.0 0.00 0.00 0.00 91 1010.3
20260506102935 23 239 0.0 0.0 0.00 0.00 0.00 91 1010.3
20260506102433 23 238 0.0 0.0 0.00 0.00 0.00 91 1010.3
20260506101930 23 192 1.6 1.6 0.00 0.00 0.00 91 1010.0
20260506101426 23 203 1.6 3.2 0.00 0.00 0.00 91 1010.3
20260506100924 23 240 0.0 0.0 0.00 0.00 0.00 91 1010.0
20260506100422 23 212 1.6 1.6 0.00 0.00 0.00 91 1010.0
20260506095919 23 198 8.0 9.7 0.00 0.00 0.00 91 1010.0
20260506095418 23 189 3.2 3.2 0.00 0.00 0.00 91 1010.0
20260506094914 23 220 4.8 4.8 0.00 0.00 0.00 91 1009.6
20260506094413 23 235 3.2 4.8 0.00 0.00 0.00 91 1009.6
20260506093910 23 202 3.2 3.2 0.00 0.00 0.00 91 1009.6
20260506093407 23 132 1.6 3.2 0.00 0.00 0.00 92 1009.6
20260506092905 23 216 3.2 3.2 0.00 0.00 0.00 91 1009.6